TimePDT,TemperatureF,Dew PointF,Humidity,Sea Level PressureIn,VisibilityMPH,Wind Direction,Wind SpeedMPH,Gust SpeedMPH,PrecipitationIn,Events,Conditions,WindDirDegrees,DateUTC
12:55 AM,41.0,30.0,65,30.32,10.0,Calm,Calm,-,N/A,,Clear,0,2011-10-25 07:55:00
1:55 AM,41.0,28.9,62,30.33,10.0,North,5.8,-,N/A,,Clear,350,2011-10-25 08:55:00
2:55 AM,41.0,28.0,60,30.34,10.0,WNW,6.9,-,N/A,,Clear,300,2011-10-25 09:55:00
3:55 AM,39.0,28.0,65,30.35,10.0,NW,8.1,-,N/A,,Clear,310,2011-10-25 10:55:00
4:55 AM,39.0,28.0,65,30.36,10.0,NW,9.2,-,N/A,,Clear,320,2011-10-25 11:55:00
5:55 AM,37.0,28.0,70,30.38,10.0,NW,5.8,-,N/A,,Clear,310,2011-10-25 12:55:00
6:55 AM,37.0,28.0,70,30.40,10.0,WNW,5.8,-,N/A,,Clear,290,2011-10-25 13:55:00
7:55 AM,34.0,28.0,79,30.42,10.0,West,8.1,-,N/A,,Clear,280,2011-10-25 14:55:00
8:55 AM,37.9,30.0,73,30.43,10.0,WNW,6.9,-,N/A,,Clear,290,2011-10-25 15:55:00
9:55 AM,41.0,30.9,67,30.45,10.0,West,6.9,-,N/A,,Clear,260,2011-10-25 16:55:00
10:55 AM,44.1,30.9,60,30.45,10.0,West,5.8,-,N/A,,Clear,260,2011-10-25 17:55:00
12:55 PM,52.0,28.9,41,30.43,10.0,West,4.6,-,N/A,,Clear,270,2011-10-25 19:55:00
1:55 PM,54.0,26.1,34,30.41,10.0,West,4.6,-,N/A,,Clear,270,2011-10-25 20:55:00
2:55 PM,55.0,24.1,30,30.40,10.0,WNW,3.5,-,N/A,,Clear,290,2011-10-25 21:55:00
3:55 PM,55.9,24.1,29,30.40,10.0,West,5.8,-,N/A,,Clear,260,2011-10-25 22:55:00
4:55 PM,55.0,23.0,29,30.39,10.0,Calm,Calm,-,N/A,,Clear,0,2011-10-25 23:55:00
6:55 PM,46.0,26.1,46,30.40,10.0,West,3.5,-,N/A,,Clear,280,2011-10-26 01:55:00
7:55 PM,42.1,24.1,49,30.41,10.0,Calm,Calm,-,N/A,,Clear,0,2011-10-26 02:55:00
9:55 PM,39.9,24.1,53,30.42,10.0,Calm,Calm,-,N/A,,Clear,0,2011-10-26 04:55:00
10:55 PM,39.9,26.1,58,30.42,10.0,West,8.1,-,N/A,,Clear,280,2011-10-26 05:55:00
11:55 PM,39.9,27.0,60,30.42,10.0,NW,9.2,-,N/A,,Clear,320,2011-10-26 06:55:00